Location: Newark
(42.8481°N, 0.4872°E)
Time: 23:12:42
(UTC+00:00)

SR - Pass Details

Date: 08 November 2020
Orbit: 579 x 876 km, 66.7° (Epoch: 29 November)

Event Time Altitude Azimuth Distance (km) Brightness Sun altitude
Rises 00:09:12 0° 230° (SW) 2,786 - -63.2°
Reaches altitude 10° 00:11:30 10° 238° (WSW) 1,900 - -63.0°
Maximum altitude 00:15:28 38° 308° (NW) 916 - -62.8°
Drops below altitude 10° 00:19:39 10° 17° (NNE) 1,998 - -62.6°
Sets 00:22:08 0° 26° (NNE) 2,951 - -62.4°
